Location: Albany
(35.0170°S, 117.8920°E)
Time: 03:10:47
(UTC+08:00)

Vanguard 1 - Pass Details

Date: 31 January 2021
Orbit: 649 x 3833 km, 34.2° (Epoch: 26 February)

Event Time Altitude Azimuth Distance (km) Brightness Sun altitude
Rises 21:14:22 0° 320° (NW) 6,811 14.3 -21.4°
Reaches altitude 10° 21:20:09 10° 328° (NNW) 5,262 13.7 -22.3°
Enters shadow 21:31:19 33° 20° (NNE) 2,644 11.7 -23.9°
Maximum altitude 21:31:43 33° 24° (NNE) 2,601 - -24.0°
Drops below altitude 10° 21:38:42 10° 85° (E) 3,153 - -25.0°
Sets 21:41:13 0° 95° (E) 3,827 - -25.3°
